Regional Weather Roundup
Issued by NWS State College, PA

Home | Current Version | Previous Version | Text Only | Print | Product List | Glossary Off
Versions: 1 2 3 4 5 6 7 8 9 10 11 12 13 14 15 16 17 18 19 20 21 22 23 24 25 26 27 28 29 30 31 32 33 34 35 36 37 38 39 40 41 42 43 44 45 46 47 48 49 50

000
ASUS41 KCTP 222310
RWRCTP

REGIONAL WEATHER ROUNDUP
NATIONAL WEATHER SERVICE STATE COLLEGE PA
700 PM EDT MON SEP 22 2014

Note: "fair" indicates few or no clouds below 12,000 feet with no
significant weather and/or obstructions to visibility.

* = STATION THAT DOES NOT REPORT PRECIPITATION /E.G. RAIN...SNOW...ETC/
    THUNDER OR FOG.

PAZ002>004-007>009-013>016-020>023-029>032-230000-
WESTERN PENNSYLVANIA

CITY           SKY/WX    TMP DP  RH WIND       PRES   REMARKS
ERIE           CLOUDY    56  40  55 W9        30.19R
MEADVILLE      CLOUDY    49  40  71 W6        30.20R
FRANKLIN*      CLOUDY    48  39  71 NW6       30.21R
NEW CASTLE       N/A     53  42  66 NW5       30.22R
BEAVER COUNTY  CLOUDY    54  41  62 NW5       30.20R
BUTLER*        CLOUDY    54  41  62 NW3       30.22R
PITTSBURGH INT MOCLDY    55  42  61 N9        30.20R
PITTSBURGH     CLOUDY    55  40  56 NW6       30.19R
INDIANA*       CLOUDY    54  43  66 NW5       30.22S
LATROBE        MOCLDY    55  45  67 NW7       30.20R
WASHINGTON CO* PTCLDY    55  43  62 NW3       30.22R
$$

PAZ004>006-010>012-017>019-024>028-033>037-041-042-045-046-049>053-230000-
CENTRAL PENNSYLVANIA

CITY           SKY/WX    TMP DP  RH WIND       PRES   REMARKS
BRADFORD       CLOUDY    48  40  73 NW8       30.16R
DUBOIS         CLOUDY    49  43  80 W7        30.17R
CLEARFIELD     CLOUDY    51  43  74 NW14G22   30.17R
JOHNSTOWN      CLOUDY    50  39  66 NW12      30.17R
ALTOONA        CLOUDY    54  42  64 NW15G23   30.16R
STATE COLLEGE  CLOUDY    55  43  62 NW9       30.14R
WILLIAMSPORT   MOCLDY    57  40  52 W10       30.11R
SELINSGROVE    PTCLDY    57  42  57 NW6       30.12R
FT INDIANTOWN  CLEAR     59  42  52 VRB3      30.10R
CAPITAL CITY   CLEAR     61  41  47 NW13      30.11R
HARRISBURG     PTCLDY    61  42  49 NW15      30.10R
YORK           PTCLDY    60  42  51 NW10      30.11R
$$

PAZ038>040-043-044-047-048-054-055-060>062-067>071-230000-
EASTERN PENNSYLVANIA

CITY           SKY/WX    TMP DP  RH WIND       PRES   REMARKS
SCRANTON       CLEAR     55  40  56 N8        30.09R
MOUNT POCONO   CLEAR     51  39  63 NW8       30.06R
ALLENTOWN      CLEAR     60  42  51 NW7       30.06R
QUAKERTOWN*    CLEAR     59  41  51 NW6       30.07R
READING        CLEAR     61  41  47 NW13      30.08R
LANCASTER      CLEAR     60  41  49 NW10      30.09R
COATESVILLE    CLEAR     59  45  58 NW12      30.08R
POTTSTOWN      CLEAR     61  43  51 NW6       30.08R
BLUE BELL      CLEAR     63  45  51 W5        30.05R
DOYLESTOWN     CLEAR     61  42  49 VRB7      30.05R
WILLOW GROVE   NOT AVBL
NORTH PHILA    PTCLDY    66  41  40 W13       30.07R
PHILADELPHIA   MOCLDY    67  45  45 NW15G21   30.06R
$$



USA.gov is the U.S. government's official web portal to all federal, state and local government web resources and services.